Date,TemperatureHighF,TemperatureAvgF,TemperatureLowF,DewpointHighF,DewpointAvgF,DewpointLowF,HumidityHigh,HumidityAvg,HumidityLow,PressureMaxIn,PressureMinIn,WindSpeedMaxMPH,WindSpeedAvgMPH,GustSpeedMaxMPH,PrecipitationSumIn
2013-1-1,38,31,26,35,30,25,95,93,91,30.20,30.05,0,0,0,0.00
2013-1-2,44,33,26,36,28,24,95,83,63,30.06,29.89,0,0,0,0.01
2013-1-3,44,33,23,33,28,21,93,81,63,29.90,29.79,0,0,0,0.10
2013-1-4,48,42,36,45,40,33,94,91,87,30.00,29.85,0,0,0,0.01
2013-1-5,44,41,39,41,38,37,94,90,85,29.90,29.80,0,0,0,0.11
2013-1-6,47,42,40,42,40,38,93,89,82,29.87,29.67,0,0,0,0.26
2013-1-7,50,45,41,48,43,39,95,93,86,29.86,29.51,0,0,0,0.61
2013-1-8,51,46,42,49,44,40,95,93,90,29.86,29.40,0,0,0,0.35
2013-1-9,51,40,34,48,38,32,94,93,90,29.65,29.36,0,0,0,1.14
2013-1-10,39,34,27,37,32,26,95,93,90,29.81,29.63,0,0,0,0.06
2013-1-11,34,28,21,32,26,20,95,93,91,30.03,29.80,0,0,0,0.00
2013-1-12,35,26,21,30,23,19,94,89,69,30.15,30.02,0,0,0,0.00
2013-1-13,35,26,18,31,24,16,93,89,79,30.19,30.13,0,0,0,0.00
2013-1-14,36,33,31,34,31,28,94,92,90,30.27,30.16,0,0,0,0.01
2013-1-15,42,34,27,37,31,24,94,88,72,30.40,30.26,0,0,0,0.01
2013-1-16,38,29,23,35,27,21,94,91,89,30.38,30.22,0,0,0,0.00
2013-1-17,36,30,26,34,28,24,94,93,92,30.23,29.99,0,0,0,0.00
2013-1-18,34,30,25,32,29,24,95,94,93,30.04,29.96,0,0,0,0.01
2013-1-19,34,32,29,32,30,27,95,95,94,30.08,30.03,0,0,0,0.00
2013-1-20,36,32,29,35,31,28,96,95,94,30.09,29.96,0,0,0,0.01
2013-1-21,34,31,29,33,30,28,96,95,94,29.96,29.82,0,0,0,0.00
2013-1-22,38,31,23,36,29,22,95,94,90,29.85,29.60,0,0,0,0.00
2013-1-23,41,38,34,40,37,33,95,94,90,29.83,29.52,0,0,0,0.43
2013-1-24,47,42,40,43,40,38,95,91,81,29.90,29.73,0,0,0,0.39
2013-1-25,51,45,39,46,42,36,93,90,84,29.75,29.62,0,0,0,0.00
2013-1-26,42,40,39,40,38,37,94,93,90,29.72,29.57,0,0,0,0.64
2013-1-27,43,40,38,42,39,37,95,94,93,29.74,29.68,0,0,0,0.56
2013-1-28,40,39,37,38,37,36,94,94,93,29.77,29.68,0,0,0,1.63
2013-1-29,44,42,39,43,40,37,96,95,93,30.03,29.77,0,0,0,0.84
2013-1-30,50,46,43,48,44,41,96,95,94,30.07,30.01,0,0,0,0.22
2013-1-31,50,46,45,48,45,43,96,94,90,30.08,29.99,0,0,0,0.09